User: anonymous   Login
Location: Lourdes
(43.1000°N, 0.0500°W)
Time: 18:46:34
(UTC+00:00)
Language:

COSMOS 2251 DEB - Orbit

View from above orbital plane
View from above orbital plane
View from above satellite
View from above satellite

Ground track
Ground track

The orbit data is extracted from the following two-line orbital elements,

1 34729U 93036YX  21172.64682396  .00000424  00000-0  11452-3 0  9999
2 34729  74.0284 244.0629 0028603  46.7555 104.0683 14.50695727646273
Epoch (UTC): 21 June 2021 15:31:25
Eccentricity: 0.0028603
inclination: 74.0284°
perigee height: 703 km
apogee height: 743 km
right ascension of ascending node: 244.0629°
argument of perigee: 46.7555°
revolutions per day: 14.50695727
mean anomaly at epoch: 104.0683°
orbit number at epoch: 64627

The dashed part of the orbit path shows where the satellite is in the earth's shadow,  

DLR